Zurück zum Katalog

FENGYUN 1C DEB

AktivSSO
NORAD 31210·DEBRIS·🇨🇳 China

Gestartet May 10, 1999 von Taiyuan Satellite Launch Center

Loading…

Nächste Überflüge (nächste 24 Stunden)

TLE

AlterndSource: Space-Track

Epoche: Sep 10, 2026, 05:38 UTC

1 31210U 99025BKQ 26253.23475894  .00000347  00000-0  21156-3 0  9994
2 31210  98.7277 251.9718 0018038 104.6078 317.7197 14.12306143997991

Verfolge FENGYUN 1C DEB in Echtzeit mit AllMySat

Download on the App Store